UAE153 LSZH-OMDB

Flight info

Callsign UAE153
Flight time N/A
Altitude 35000
Route DEGES Z2 XEBIX L607 ELMEM N606 GIRIS DCT TISAX DCT NAXAV DCT GIKEB DCT ROSKA DCT ROTAR DCT AIOSA/N0485F370 DCT LATAN DCT SALUN N705 MMA P751 DASUM Y234 FYM M872 BDB Y214 NAGUB/N0492F390 Y214 RAPMA DCT KUVSO DCT KATIT DCT PEKEM M628 RIGIL G783 ELUDA/N0482F350 G783 ASPED Q308 KIPOK Q568 IMPED
Aircraft A388/J-SADE2E3FGHIJ3J4J5M1RWXY/LB1D1

Departure

Time 2026-05-04 20:22
Airport Zürich Airport (LSZH)

Arrival

Time N/A
Airport Dubai International Airport (OMDB)
Time Latitude Longitude Altitude Speed Heading
2026-05-04 19:55 47.46202 8.55095 1399 ft 0 kts 155°
2026-05-04 20:08 47.46215 8.55087 1402 ft 4 kts 156°
2026-05-04 20:09 47.46240 8.55072 1394 ft 4 kts 161°
2026-05-04 20:09 47.46265 8.55058 1408 ft 4 kts 147°
2026-05-04 20:09 47.46284 8.55032 1407 ft 4 kts 119°
2026-05-04 20:09 47.46292 8.54995 1407 ft 4 kts 95°
2026-05-04 20:10 47.46294 8.54959 1406 ft 4 kts 96°
2026-05-04 20:10 47.46297 8.54919 1406 ft 4 kts 95°
2026-05-04 20:10 47.46300 8.54880 1405 ft 4 kts 95°
2026-05-04 20:10 47.46302 8.54849 1405 ft 4 kts 91°
2026-05-04 20:11 47.46297 8.54812 1405 ft 4 kts 54°
2026-05-04 20:11 47.46278 8.54791 1405 ft 4 kts 11°
2026-05-04 20:11 47.46252 8.54790 1404 ft 4 kts 349°
2026-05-04 20:11 47.46226 8.54800 1406 ft 3 kts 335°
2026-05-04 20:12 47.46223 8.54803 1406 ft 0 kts 334°
2026-05-04 20:14 47.46236 8.54793 1406 ft 5 kts 335°
2026-05-04 20:14 47.46272 8.54791 1404 ft 6 kts 24°
2026-05-04 20:14 47.46294 8.54830 1405 ft 3 kts 91°
2026-05-04 20:14 47.46284 8.54878 1404 ft 7 kts 121°
2026-05-04 20:15 47.46239 8.54934 1404 ft 11 kts 155°
2026-05-04 20:15 47.46166 8.54983 1404 ft 12 kts 155°
2026-05-04 20:15 47.46086 8.55039 1408 ft 13 kts 155°
2026-05-04 20:15 47.46000 8.55099 1409 ft 14 kts 155°
2026-05-04 20:16 47.45918 8.55159 1410 ft 12 kts 140°
2026-05-04 20:16 47.45892 8.55262 1411 ft 11 kts 96°
2026-05-04 20:16 47.45884 8.55381 1409 ft 12 kts 96°
2026-05-04 20:16 47.45875 8.55508 1414 ft 13 kts 96°
2026-05-04 20:17 47.45865 8.55655 1417 ft 14 kts 96°
2026-05-04 20:17 47.45855 8.55802 1414 ft 15 kts 96°
2026-05-04 20:17 47.45844 8.55956 1416 ft 15 kts 96°
2026-05-04 20:17 47.45832 8.56112 1423 ft 15 kts 96°
2026-05-04 20:18 47.45828 8.56251 1422 ft 11 kts 69°
2026-05-04 20:18 47.45895 8.56307 1424 ft 13 kts
2026-05-04 20:18 47.46000 8.56317 1417 ft 16 kts
2026-05-04 20:18 47.46101 8.56377 1422 ft 11 kts 44°
2026-05-04 20:19 47.46129 8.56420 1419 ft 1 kts 46°
2026-05-04 20:19 47.46140 8.56430 1423 ft 2 kts
2026-05-04 20:19 47.46153 8.56422 1418 ft 6 kts 307°
2026-05-04 20:19 47.46168 8.56394 1418 ft 0 kts 317°
2026-05-04 20:21 47.46180 8.56378 1421 ft 15 kts 317°
2026-05-04 20:21 47.47119 8.55096 1403 ft 155 kts 317°
2026-05-04 20:22 47.47979 8.53926 1674 ft 170 kts 317°
2026-05-04 20:22 47.49149 8.52363 2395 ft 174 kts 316°
2026-05-04 20:22 47.50065 8.51201 2951 ft 174 kts 324°
2026-05-04 20:22 47.51120 8.50299 3484 ft 176 kts 331°
2026-05-04 20:23 47.51863 8.49748 3813 ft 177 kts 330°
2026-05-04 20:23 47.52736 8.48505 4214 ft 176 kts 297°
2026-05-04 20:23 47.53207 8.46836 4692 ft 177 kts 283°
2026-05-04 20:23 47.53344 8.44944 5159 ft 178 kts 265°
2026-05-04 20:24 47.53142 8.43219 5607 ft 178 kts 253°
2026-05-04 20:24 47.52725 8.41491 6055 ft 178 kts 246°
2026-05-04 20:24 47.52208 8.39814 6488 ft 179 kts 244°
2026-05-04 20:24 47.51598 8.38215 6756 ft 188 kts 226°
2026-05-04 20:25 47.50423 8.37243 6904 ft 202 kts 189°
2026-05-04 20:25 47.48996 8.37512 7004 ft 216 kts 154°
2026-05-04 20:25 47.47773 8.38884 7106 ft 227 kts 135°
2026-05-04 20:25 47.46730 8.40647 7272 ft 233 kts 131°
2026-05-04 20:26 47.45870 8.42672 7484 ft 236 kts 110°
2026-05-04 20:26 47.45668 8.45070 7737 ft 238 kts 88°
2026-05-04 20:26 47.45729 8.47558 7824 ft 249 kts 90°
2026-05-04 20:26 47.45740 8.50243 8006 ft 272 kts 91°
2026-05-04 20:27 47.45729 8.53118 8383 ft 285 kts 92°
2026-05-04 20:27 47.45724 8.54211 8599 ft 286 kts 92°
2026-05-04 20:27 47.45724 8.54350 8640 ft 286 kts 91°
2026-05-04 20:27 47.45759 8.56124 9016 ft 288 kts 88°
2026-05-04 20:28 47.45954 8.59083 9642 ft 291 kts 85°
2026-05-04 20:28 47.46180 8.62085 9993 ft 295 kts 85°
2026-05-04 20:28 47.46256 8.63096 10016 ft 294 kts 86°